Regional Weather Roundup
Issued by NWS Sterling, VA

Home | Current Version | Previous Version | Text Only | Print | Product List | Glossary Off
Versions: 1 2 3 4 5 6 7 8 9 10 11 12 13 14 15 16 17 18 19 20 21 22 23 24 25 26 27 28 29 30 31 32 33 34 35 36 37 38 39 40 41 42 43 44 45 46 47 48 49 50

000
ASUS41 KLWX 171810
RWRLWX

REGIONAL WEATHER ROUNDUP
NATIONAL WEATHER SERVICE BALTIMORE MD/WASHINGTON DC
200 PM EDT WED SEP 17 2014

Note: "FAIR" indicates few or no clouds below 12,000 feet
with no significant weather and/or obstructions to visibility.
 TC=TEMPERATURE CELSIUS

 * =Non NWS site. Station does not report precipitation (e.g. rain,
    snow, etc.), thunder, or fog.

DCZ001-MDZ009-015-VAZ040>042-051-053>054-171900-
WASHINGTON METRO

CITY           SKY/WX    TMP DP  RH WIND       PRES   REMARKS
WASHINGTON NAT PTSUNNY   76  48  37 S5        30.00F
DULLES         PTSUNNY   70  48  45 CALM      30.01F
ANDREWS AFB    PTSUNNY   70  51  51 E6        30.00F
QUANTICO       MOSUNNY   73  53  49 S6        30.01F
COLLEGE PARK*  PTSUNNY   73  50  43 CALM      30.00F
LEESBURG*      SUNNY     72  52  49 W5        30.01F
GAITHERSBURG*  CLOUDY    70  50  49 CALM      30.04F

$$

MDZ006>007-011-014-171900-
BALTIMORE METRO

CITY           SKY/WX    TMP DP  RH WIND       PRES   REMARKS
BWI AIRPORT    MOSUNNY   70  49  47 E6        30.00F
MD SCIENCE CTR   N/A     75  47  36 MISG      30.00F
MARTIN STATE   MOSUNNY   73  54  49 SE8       30.02F
ANNAPOLIS      MOSUNNY   71  54  54 SE8       30.01F

$$

MDZ012-015-019>023-171900-
MARYLAND EASTERN SHORE

CITY           SKY/WX    TMP DP  RH WIND       PRES   REMARKS
OCEAN CITY     SUNNY     73  49  42 NE10      30.00F
SALISBURY      PTSUNNY   77  47  34 CALM      29.99F
BAY BRIDGE AP*   N/A     72  45  37 W3        30.01F
CAMBRIDGE*     SUNNY     75  45  33 CALM      29.99F
EASTON*        MOSUNNY   75  48  38 E5        30.04F

$$

MDZ017>025-171900-
SOUTHERN MARYLAND

CITY           SKY/WX    TMP DP  RH WIND       PRES   REMARKS
PATUXENT RIVER MOSUNNY   74  49  41 SE8       30.00F
ST INIGOES     MOSUNNY   74  51  44 E7        29.99F
LEONARDTOWN*   PTSUNNY   72  46  40 CALM      30.01F

$$

MDZ003>005-171900-
NORTH CENTRAL MARYLAND

CITY           SKY/WX    TMP DP  RH WIND       PRES   REMARKS
FREDERICK*     NOT AVBL
HAGERSTOWN APT PTSUNNY   68  45  43 CALM      30.01F
WESTMINSTER*   MOSUNNY   68  48  49 CALM      30.01F

$$

MDZ501>502-171900-
WESTERN MARYLAND

CITY           SKY/WX    TMP DP  RH WIND       PRES   REMARKS
OAKLAND*       MOSUNNY   61  43  51 CALM      30.03F
CUMBERLAND*    PTSUNNY   73  45  35 CALM      30.04F

$$

VAZ025>031-171900-
SHENANDOAH VALLEY

CITY           SKY/WX    TMP DP  RH WIND       PRES   REMARKS
WINCHESTER*    PTSUNNY   70  46  43 CALM      30.00F
STAUNTON*      NOT AVBL

$$

WVZ021-048>050-054>055-171900-
EASTERN WEST VIRGINIA PANHANDLE

CITY           SKY/WX    TMP DP  RH WIND       PRES   REMARKS
MARTINSBURG    CLOUDY    71  45  39 E5        30.01F
PETERSBURG*    PTSUNNY   70  47  42 E7        30.00F

$$

VAZ036>039-050-171900-
CENTRAL FOOTHILLS

CITY           SKY/WX    TMP DP  RH WIND       PRES   REMARKS
CHARLOTTESVILL MOSUNNY   68  50  52 CALM      30.00F
ORANGE*        MOSUNNY   72  50  46 NE5       30.01F

$$

VAZ055>057-171900-
NORTH AND CENTRAL PIEDMONT

CITY           SKY/WX    TMP DP  RH WIND       PRES   REMARKS
FREDERICKSBRG* PTSUNNY   75  51  42 E6        29.99F
STAFFORD*      PTSUNNY   74  53  47 CALM      30.04F

$$

NCZ024-NYZ072-PAZ021-071-VAZ022-071-171900-
OTHER REGIONAL OBSERVATIONS

CITY           SKY/WX    TMP DP  RH WIND       PRES   REMARKS
NEW YORK CITY  SUNNY     72  41  32 VRB5      30.02F
PHILADELPHIA   MOSUNNY   72  46  39 S5        30.00F
PITTSBURGH     PTSUNNY   67  46  47 VRB3      30.00F
ROANOKE        PTSUNNY   69  53  56 SE8       30.03F
RICHMOND       PTSUNNY   77  53  43 VRB5      29.98F
RALEIGH        PTSUNNY   76  61  59 E5        29.95F

$$

ANZ530>537-171900-
MARINE OBSERVATIONS

STATION/POSITION TIME  TEMP    WIND        PRES
                       AIR SEA DIR/SP/G
                 (UTC) (F)     (DEG/KT/KT) (MB)
THOMAS PT LIGHT  1800   69 74   40/  2/  2 1017.1F
BALT KEY BRIDGE  1800   68     120/  7/  9 1016.1F
COVE POINT       1800   69     350/  6/  9 1016.0F
LEWISETTA        1800   70 73   90/  5/  6 1015.5F
SOLOMONS ISLAND  1800      76                N/A
PINEY POINT      1800          170/  4/  6   N/A

$$




USA.gov is the U.S. government's official web portal to all federal, state and local government web resources and services.